Location: Az?znagar
(16.8373°N, 80.5091°E)
Time: 16:02:43
(UTC+00:00)

deb Chang Zheng 4 - Pass Details

Date: 04 October 2022
Orbit: 879 x 975 km, 98.9° (Epoch: 30 November)

Event Time Altitude Azimuth Distance (km) Brightness Sun altitude
Exits shadow 14:53:14 35° 242° (WSW) 1,403 ? -36.3°
Maximum altitude 14:54:00 37° 259° (W) 1,364 ? -36.5°
Drops below altitude 10° 14:59:10 10° 325° (NW) 2,541 ? -37.7°
Sets 15:01:44 0° 334° (NNW) 3,475 ? -38.3°
